sat.trackr.live / text

‹ back to catalog

STARLINK-37569

NORAD 69836 · 2026-154T

PAYLOAD ACTIVE UNKNOWN

§ Identity

Operator
Country
US
Launch date
2026-07-05
Launch site
AFETR
Launch vehicle
Mass (kg)
RCS (m²)

Purposes: comms

External: N2YO · Heavens-Above · Gunter

§ Orbital elements

Epoch: 2026-09-20T04:35:26.121120Z

Period
93.85 min
Inclination
53.1602°
Eccentricity
0.0001138
Mean motion
15.34393282 rev/d
Perigee alt
461.9 km
Apogee alt
463.5 km
Semi-major
6,840.9 km
B*
1.2368e-4
RAAN
332.9598°
Arg perigee
96.5052°
Mean anomaly
263.6080°
Rev number
1,319

§ Raw data

STARLINK-375691 69836U 26154T   26263.19127455  .00003804  00000+0  12368-3 0  99902 69836  53.1602 332.9598 0001138  96.5052 263.6080 15.34393282 13199

JSON: /api/v1/satellites/69836 · /tle

For live sub-satellite position, see the globe view (requires WebGL).

§ Visibility from observer

Set your observer location to see the next 7 days of passes ≥ 10°. The values pass through the URL so the page stays shareable.

No JS? Fill the form by hand. The geolocation button needs JavaScript.